[[{"header":{"parameterUnit":"m.s-1","parameterCategory":1,"la1":30.2991,"la2":30.254,"lo1":-89.0895,"lo2":-89.0444,"dy":0.0017,"dx":0.0017,"nx":28,"ny":28,"refTime":"2024-08-27T21:00:00:Z","depth":0,"parameterNumber":2,"parameterNumberName":"U-component_of_WINDS"},"data":[0,0,0,0,0,0,0,0,0,0,0,0,0,0,0,0,0,0,0,0,0,0,0,0,0,0,0,0,0,0,0,0,0,0,0,0,0,0,0,0,0,0,0,0,0,0,0,0,0,0,0,0,0,0,0,0,0,0,-0.7238,-0.7237,0,-0.716,-0.7159,-0.7158,-0.7103,-0.7103,-0.7103,-0.7102,-0.7019,-0.7017,-0.7015,0,0,0,0,0,0,0,0,0,0,0,0,0,-0.7335,-0.7334,-0.7238,-0.7237,-0.7236,-0.716,-0.7159,-0.7158,-0.7103,-0.7103,-0.7102,-0.7102,-0.7019,-0.7017,-0.7015,0,0,0,0,0,0,0,0,0,0,0,0,0,-0.7279,-0.7333,-0.7238,-0.72,-0.7195,-0.716,-0.7159,-0.7157,-0.7104,-0.7103,-0.7102,-0.7102,-0.702,-0.7017,-0.7015,-0.701,0,0,-0.7006,-0.7005,0,0,0,0,0,0,0,0,-0.7282,-0.7275,-0.7206,-0.7202,-0.7197,-0.7141,-0.7163,-0.7108,-0.7104,-0.7138,-0.7102,-0.7101,-0.706,-0.7053,-0.704,-0.7006,-0.7003,-0.7006,-0.7004,-0.7003,-0.7002,0,0,0,0,0,0,0,-0.7286,-0.7278,-0.7207,-0.7205,-0.72,-0.7185,-0.7176,-0.7152,-0.7103,-0.7135,-0.7131,-0.7123,-0.7057,-0.7043,-0.7038,-0.7001,-0.7006,-0.7004,-0.7002,-0.7001,-0.6959,-0.6959,0,0,0,0,0,0,-0.7296,-0.7282,-0.7209,-0.7204,-0.7239,-0.7184,-0.7174,-0.7159,-0.7103,-0.7094,-0.7123,-0.7121,-0.7048,-0.7041,-0.7035,-0.7025,-0.7003,-0.7001,-0.6999,-0.6958,-0.6959,-0.6959,0,0,0,0,0,0,-0.7299,-0.729,-0.7212,-0.7242,-0.7231,-0.7183,-0.7167,-0.7158,-0.7144,-0.7095,-0.7085,-0.7118,-0.7047,-0.7038,-0.7017,-0.7021,-0.6999,-0.6997,-0.6957,-0.6958,-0.6959,-0.7006,0,0,0,0,0,0,-0.7302,-0.7292,-0.729,-0.7242,-0.723,-0.7197,-0.7167,-0.7157,-0.714,-0.7136,-0.7087,-0.7079,-0.7046,-0.7021,-0.7014,-0.7017,-0.6995,-0.6957,-0.6958,-0.6959,-0.7004,-0.7009,-0.7013,0,0,0,0,0,-0.7305,-0.7306,-0.7291,-0.7282,-0.7227,-0.7197,-0.719,-0.7154,-0.7141,-0.7138,-0.7106,-0.708,-0.7022,-0.7019,-0.7011,-0.7013,-0.6956,-0.6957,-0.6959,-0.7002,-0.7008,-0.7012,0,0,0,0,0,0,-0.7355,-0.7299,-0.7281,-0.7267,-0.7237,-0.7188,-0.7184,-0.7161,-0.7133,-0.713,-0.7085,-0.7074,-0.7057,-0.7033,-0.7031,-0.7005,-0.6986,-0.6985,-0.7022,-0.7027,-0.7031,-0.7037,-0.6992,0,0,0,0,0,-0.7364,-0.7346,-0.7298,-0.7289,-0.7276,-0.7233,-0.7218,-0.7193,-0.716,-0.7147,-0.7113,-0.7082,-0.7056,-0.704,-0.7014,-0.7,-0.6988,-0.6998,-0.7002,-0.7006,-0.7006,-0.6996,-0.6999,-0.6963,-0.6963,-0.6963,0,0,-0.7383,-0.735,-0.7341,-0.7299,-0.7273,-0.7254,-0.7223,-0.7204,-0.7189,-0.7144,-0.7121,-0.7096,-0.7057,-0.7039,-0.703,-0.7018,-0.7013,-0.7007,-0.7011,-0.7008,-0.6998,-0.7001,-0.7004,-0.6964,-0.6964,-0.6964,0,0,-0.7407,-0.7381,-0.7371,-0.7346,-0.7308,-0.7279,-0.7277,-0.7232,-0.7213,-0.719,-0.7156,-0.7137,-0.7094,-0.7068,-0.7049,-0.7063,-0.7038,-0.7056,-0.7077,-0.7069,-0.7071,-0.7074,-0.7078,-0.708,-0.7056,-0.7056,-0.7056,0,-0.7435,-0.7406,-0.7369,-0.7352,-0.7334,-0.7294,-0.7282,-0.7259,-0.7214,-0.7202,-0.719,-0.7136,-0.7107,-0.7082,-0.7086,-0.7072,-0.7067,-0.7061,-0.7074,-0.7076,-0.7078,-0.7081,-0.7083,-0.7058,-0.7058,-0.7058,-0.7058,0,-0.7442,-0.7422,-0.7419,-0.7377,-0.7358,-0.7345,-0.7304,-0.7289,-0.7266,-0.7238,-0.7214,-0.7178,-0.7144,-0.7136,-0.7112,-0.7108,-0.7102,-0.7083,-0.7062,-0.7084,-0.7087,-0.7088,-0.7062,-0.7061,-0.706,-0.706,0,0,-0.7495,-0.7433,-0.7433,-0.7413,-0.7368,-0.7351,-0.7335,-0.7303,-0.7291,-0.7261,-0.7245,-0.721,-0.7192,-0.7171,-0.7143,-0.7136,-0.7149,-0.7117,-0.7116,-0.7124,-0.714,-0.7155,-0.7157,-0.7132,-0.7132,-0.7132,-0.7144,0,-0.7512,-0.7482,-0.7448,-0.743,-0.741,-0.7372,-0.7357,-0.7328,-0.7301,-0.728,-0.725,-0.7226,-0.7204,-0.7191,-0.7182,-0.7149,-0.7151,-0.7148,-0.7115,-0.7115,-0.7126,-0.7159,-0.7174,-0.7187,-0.7144,-0.7145,-0.7145,0,-0.7528,-0.7501,-0.7482,-0.7438,-0.7428,-0.7416,-0.7384,-0.7364,-0.7329,-0.731,-0.7286,-0.7257,-0.7237,-0.7219,-0.719,-0.7188,-0.7173,-0.7155,-0.7154,-0.715,-0.7131,-0.7154,-0.719,-0.7192,-0.7146,-0.7146,-0.7146,0,-0.7568,-0.7527,-0.751,-0.7494,-0.7443,-0.7435,-0.7413,-0.7378,-0.736,-0.7331,-0.7319,-0.7288,-0.727,-0.7246,-0.7209,-0.7199,-0.7183,-0.7162,-0.7166,-0.7167,-0.7164,-0.7164,-0.7197,-0.7155,-0.7155,-0.7155,-0.7155,0,-0.7591,-0.758,-0.7527,-0.7516,-0.7503,-0.7463,-0.745,-0.7424,-0.7393,-0.7375,-0.7339,-0.7324,-0.7276,-0.7254,-0.7224,-0.7204,-0.7196,-0.718,-0.7172,-0.7183,-0.7185,-0.7172,-0.717,-0.7155,-0.7155,-0.7155,-0.7155,0,-0.7633,-0.7598,-0.7576,-0.753,-0.7518,-0.7509,-0.7469,-0.7456,-0.7428,-0.7406,-0.7399,-0.7354,-0.7326,-0.7287,-0.7246,-0.7226,-0.721,-0.7198,-0.7223,-0.7218,-0.7223,-0.7223,-0.7248,-0.7249,-0.7208,-0.7208,-0.7208,0,-0.765,-0.7641,-0.7594,-0.758,-0.756,-0.7538,-0.752,-0.748,-0.7463,-0.7422,-0.7414,-0.7384,-0.7358,-0.7315,-0.7278,-0.7247,-0.7233,-0.7244,-0.7228,-0.7239,-0.7233,-0.7234,-0.7232,-0.7248,-0.7248,-0.7249,-0.7249,0,-0.7683,-0.7666,-0.7643,-0.7613,-0.7593,-0.7567,-0.754,-0.753,-0.7484,-0.7466,-0.7438,-0.7418,-0.7378,-0.7347,-0.7311,-0.7287,-0.726,-0.7255,-0.7254,-0.7265,-0.7279,-0.7271,-0.7233,-0.7254,-0.7254,-0.7253,-0.7253,-0.7253,-0.7713,-0.7703,-0.7668,-0.7643,-0.7618,-0.7593,-0.7579,-0.7549,-0.7526,-0.749,-0.7468,-0.7441,-0.7404,-0.7354,-0.7331,-0.7308,-0.7297,-0.7295,-0.7295,-0.7295,-0.7299,-0.7283,-0.7301,-0.7301,-0.7301,-0.73,-0.73,0,-0.7743,-0.7719,-0.7697,-0.766,-0.764,-0.7618,-0.7586,-0.757,-0.7547,-0.7517,-0.7492,-0.7459,-0.743,-0.739,-0.7358,-0.7347,-0.7334,-0.734,-0.734,-0.7335,-0.7311,-0.7315,-0.7351,-0.7351,-0.7351,-0.7351,-0.7351,-0.7351,-0.7757,-0.7739,-0.7718,-0.7686,-0.7662,-0.7636,-0.762,-0.7596,-0.7571,-0.7537,-0.7513,-0.7488,-0.7453,-0.7418,-0.7389,-0.7378,-0.7368,-0.7378,-0.7363,-0.7341,-0.7336,-0.7332,-0.7335,-0.7376,-0.7376,-0.7388,-0.7389,-0.7389]},{"header":{"parameterUnit":"m.s-1","parameterCategory":1,"la1":30.2991,"la2":30.254,"lo1":-89.0895,"lo2":-89.0444,"dy":0.0017,"dx":0.0017,"nx":28,"ny":28,"refTime":"2024-08-27T21:00:00:Z","depth":0,"parameterNumber":3,"parameterNumberName":"V-component_of_WINDS"},"data":[0,0,0,0,0,0,0,0,0,0,0,0,0,0,0,0,0,0,0,0,0,0,0,0,0,0,0,0,0,0,0,0,0,0,0,0,0,0,0,0,0,0,0,0,0,0,0,0,0,0,0,0,0,0,0,0,0,0,-0.5854,-0.5855,0,-0.5952,-0.5953,-0.5954,-0.5997,-0.5997,-0.5997,-0.5996,-0.6099,-0.6102,-0.6105,0,0,0,0,0,0,0,0,0,0,0,0,0,-0.5707,-0.5709,-0.5854,-0.5855,-0.5856,-0.5952,-0.5953,-0.5954,-0.5997,-0.5997,-0.5997,-0.5996,-0.6098,-0.6102,-0.6105,0,0,0,0,0,0,0,0,0,0,0,0,0,-0.5784,-0.571,-0.5854,-0.5889,-0.5893,-0.5951,-0.5953,-0.5955,-0.5997,-0.5997,-0.5997,-0.5996,-0.6097,-0.6101,-0.6106,-0.6137,0,0,-0.6119,-0.6121,0,0,0,0,0,0,0,0,-0.578,-0.579,-0.5883,-0.5887,-0.5891,-0.5962,-0.5939,-0.6016,-0.5997,-0.5958,-0.5996,-0.5996,-0.6054,-0.6062,-0.6081,-0.6142,-0.6146,-0.6119,-0.6122,-0.6124,-0.6125,0,0,0,0,0,0,0,-0.5774,-0.5786,-0.5893,-0.5884,-0.5889,-0.5901,-0.5912,-0.5954,-0.6006,-0.5961,-0.5964,-0.5975,-0.6056,-0.6077,-0.6084,-0.6148,-0.6119,-0.6123,-0.6126,-0.6127,-0.624,-0.6241,0,0,0,0,0,0,-0.5763,-0.5781,-0.589,-0.5896,-0.5834,-0.5904,-0.5916,-0.594,-0.6006,-0.6015,-0.5975,-0.5977,-0.6069,-0.6078,-0.6087,-0.6129,-0.6124,-0.6128,-0.613,-0.624,-0.624,-0.6241,0,0,0,0,0,0,-0.5759,-0.5772,-0.5886,-0.5839,-0.5855,-0.5907,-0.5933,-0.5942,-0.5962,-0.6016,-0.6026,-0.5986,-0.6069,-0.6081,-0.6124,-0.6133,-0.613,-0.6134,-0.6239,-0.624,-0.6241,-0.6211,0,0,0,0,0,0,-0.5755,-0.5771,-0.5782,-0.5839,-0.5857,-0.592,-0.5933,-0.5944,-0.5969,-0.5972,-0.6029,-0.6038,-0.607,-0.6118,-0.6129,-0.6139,-0.6137,-0.6239,-0.624,-0.624,-0.6212,-0.6211,-0.621,0,0,0,0,0,-0.575,-0.5771,-0.5783,-0.5795,-0.5872,-0.592,-0.5931,-0.5966,-0.5969,-0.5982,-0.6017,-0.6037,-0.613,-0.6122,-0.6134,-0.6146,-0.6238,-0.6239,-0.624,-0.6212,-0.6211,-0.621,0,0,0,0,0,0,-0.5714,-0.5779,-0.5793,-0.5832,-0.587,-0.5927,-0.5944,-0.5964,-0.6002,-0.6003,-0.6047,-0.6059,-0.6099,-0.6127,-0.6116,-0.618,-0.6186,-0.619,-0.616,-0.616,-0.6159,-0.6151,-0.6141,0,0,0,0,0,-0.5711,-0.5743,-0.5798,-0.5828,-0.5846,-0.5892,-0.5914,-0.5938,-0.598,-0.5996,-0.6035,-0.6075,-0.6114,-0.6138,-0.6177,-0.6216,-0.623,-0.623,-0.6229,-0.6228,-0.6231,-0.6255,-0.6256,-0.6244,-0.6244,-0.6244,0,0,-0.5704,-0.5744,-0.5762,-0.5822,-0.5854,-0.5888,-0.5905,-0.594,-0.5966,-0.6002,-0.6045,-0.6074,-0.6123,-0.6164,-0.6184,-0.6189,-0.6237,-0.623,-0.6228,-0.6232,-0.6256,-0.6257,-0.6258,-0.6244,-0.6244,-0.6244,0,0,-0.571,-0.5743,-0.5771,-0.5803,-0.5852,-0.5882,-0.5889,-0.5943,-0.5964,-0.6007,-0.6035,-0.6067,-0.6132,-0.6166,-0.6191,-0.621,-0.6229,-0.6221,-0.6217,-0.6239,-0.624,-0.6241,-0.6248,-0.625,-0.6224,-0.6224,-0.6224,0,-0.5696,-0.5747,-0.5784,-0.5817,-0.5843,-0.5877,-0.5907,-0.5936,-0.5995,-0.6013,-0.6017,-0.61,-0.6134,-0.6184,-0.6189,-0.6208,-0.6218,-0.6215,-0.6237,-0.6238,-0.624,-0.6247,-0.625,-0.6222,-0.6222,-0.6223,-0.6223,0,-0.5728,-0.5764,-0.5781,-0.5836,-0.5864,-0.5896,-0.5938,-0.5962,-0.5984,-0.6014,-0.6058,-0.6101,-0.6149,-0.6163,-0.6184,-0.6216,-0.6217,-0.6228,-0.6235,-0.6239,-0.6247,-0.625,-0.622,-0.6221,-0.6221,-0.6222,0,0,-0.5714,-0.5789,-0.5795,-0.5821,-0.5877,-0.5905,-0.5939,-0.5985,-0.6005,-0.6045,-0.6074,-0.6129,-0.614,-0.6169,-0.6195,-0.6214,-0.6227,-0.6224,-0.6226,-0.6223,-0.6265,-0.6256,-0.6259,-0.624,-0.6241,-0.6242,-0.6261,0,-0.5728,-0.5788,-0.5822,-0.5869,-0.5902,-0.5934,-0.5964,-0.6002,-0.6031,-0.6065,-0.6097,-0.6135,-0.6147,-0.6164,-0.6185,-0.6221,-0.6236,-0.622,-0.6269,-0.6271,-0.6256,-0.6263,-0.6254,-0.627,-0.6265,-0.6265,-0.6265,0,-0.5752,-0.579,-0.5839,-0.5892,-0.5908,-0.5933,-0.5978,-0.601,-0.6054,-0.6074,-0.6106,-0.6132,-0.617,-0.6173,-0.6226,-0.6215,-0.6237,-0.6258,-0.6259,-0.6265,-0.6268,-0.627,-0.6276,-0.6279,-0.627,-0.627,-0.627,0,-0.5737,-0.5801,-0.5839,-0.586,-0.5922,-0.5939,-0.5966,-0.6011,-0.6036,-0.6076,-0.6094,-0.6138,-0.6162,-0.6196,-0.6233,-0.6232,-0.6283,-0.629,-0.6301,-0.63,-0.631,-0.6309,-0.6321,-0.6324,-0.6324,-0.6324,-0.6324,0,-0.5749,-0.5778,-0.5833,-0.5856,-0.589,-0.593,-0.5963,-0.5993,-0.6031,-0.6062,-0.6093,-0.6121,-0.6169,-0.6203,-0.6233,-0.6273,-0.6283,-0.6301,-0.6309,-0.6299,-0.6296,-0.6314,-0.6314,-0.6325,-0.6325,-0.6324,-0.6324,0,-0.5738,-0.5776,-0.5819,-0.5875,-0.5889,-0.5912,-0.596,-0.5985,-0.6015,-0.6054,-0.6065,-0.6114,-0.6156,-0.6197,-0.6253,-0.6273,-0.6313,-0.6323,-0.6298,-0.6302,-0.6311,-0.631,-0.6335,-0.6341,-0.6339,-0.6339,-0.6339,0,-0.5743,-0.5766,-0.5823,-0.5846,-0.5872,-0.5907,-0.5933,-0.5973,-0.6,-0.6052,-0.6071,-0.6115,-0.6152,-0.6219,-0.626,-0.6303,-0.6315,-0.6321,-0.6322,-0.6311,-0.6315,-0.6314,-0.6316,-0.632,-0.6319,-0.6319,-0.6319,0,-0.5748,-0.5765,-0.5801,-0.5844,-0.5874,-0.591,-0.5948,-0.5964,-0.6012,-0.604,-0.6083,-0.6112,-0.617,-0.6214,-0.6262,-0.6291,-0.6313,-0.6318,-0.6324,-0.6313,-0.6298,-0.6307,-0.6295,-0.6318,-0.6318,-0.6318,-0.6318,-0.6318,-0.5745,-0.5768,-0.5811,-0.5851,-0.5883,-0.5917,-0.5943,-0.5976,-0.6013,-0.6062,-0.6084,-0.6127,-0.6172,-0.624,-0.6268,-0.6304,-0.6309,-0.6316,-0.6318,-0.632,-0.6317,-0.6292,-0.6313,-0.6313,-0.6313,-0.6313,-0.6313,0,-0.5752,-0.5782,-0.5818,-0.5868,-0.59,-0.5917,-0.5959,-0.5984,-0.6022,-0.6061,-0.6097,-0.6147,-0.619,-0.6234,-0.628,-0.63,-0.6311,-0.6311,-0.631,-0.6316,-0.631,-0.6301,-0.6301,-0.6301,-0.6301,-0.6301,-0.6301,-0.6301,-0.576,-0.5798,-0.5821,-0.5876,-0.5906,-0.5948,-0.5971,-0.6003,-0.6035,-0.6088,-0.6124,-0.6152,-0.6194,-0.6243,-0.6284,-0.6296,-0.6311,-0.6308,-0.6323,-0.6316,-0.6317,-0.6317,-0.6309,-0.6311,-0.6311,-0.6326,-0.6326,-0.6326]}]]